ZKEAN NZAR-NZTG

Flight info

Callsign ZKEAN
Flight time 0h 42m
Altitude 8000
Route AR387 DCT MERAS DCT OSTEL DCT PAERA/N0181F090 DCT WAIHI/N0180F080 DCT RUSTA DCT TENIX
Aircraft DA42/L-SBDGRY/S

Departure

Time 2026-05-04 09:42
Airport Ardmore Airport (NZAR)

Arrival

Time 2026-05-04 10:25
Airport Tauranga Airport (NZTG)
Time Latitude Longitude Altitude Speed Heading
2026-05-04 09:22 -37.03617 174.96977 111 ft 0 kts 46°
2026-05-04 09:37 -37.03531 174.96964 111 ft 0 kts 41°
2026-05-04 09:41 -37.03535 174.96970 111 ft 3 kts 203°
2026-05-04 09:42 -37.01306 174.99732 1069 ft 102 kts 64°
2026-05-04 09:43 -37.01181 175.00571 1388 ft 98 kts 95°
2026-05-04 09:43 -37.01450 175.01334 1716 ft 97 kts 123°
2026-05-04 09:43 -37.01858 175.01990 2046 ft 95 kts 122°
2026-05-04 09:43 -37.02262 175.02633 2375 ft 93 kts 121°
2026-05-04 09:44 -37.02661 175.03264 2702 ft 91 kts 120°
2026-05-04 09:44 -37.03050 175.03880 3031 ft 90 kts 120°
2026-05-04 09:44 -37.03438 175.04492 3351 ft 89 kts 120°
2026-05-04 09:46 -37.06131 175.08764 5643 ft 91 kts 121°
2026-05-04 09:46 -37.06517 175.09377 5962 ft 89 kts 121°
2026-05-04 09:46 -37.06914 175.10007 6216 ft 97 kts 122°
2026-05-04 09:47 -37.07346 175.10690 6484 ft 103 kts 122°
2026-05-04 09:47 -37.07797 175.11405 6734 ft 106 kts 123°
2026-05-04 09:49 -37.11356 175.17065 8002 ft 138 kts 123°
2026-05-04 09:49 -37.11946 175.18000 8003 ft 136 kts 123°
2026-05-04 09:49 -37.12527 175.18925 8001 ft 135 kts 123°
2026-05-04 09:51 -37.15994 175.24455 8004 ft 134 kts 123°
2026-05-04 09:51 -37.16569 175.25372 8005 ft 134 kts 123°
2026-05-04 09:51 -37.17145 175.26291 8003 ft 134 kts 123°
2026-05-04 09:51 -37.17711 175.27196 8004 ft 134 kts 123°
2026-05-04 09:52 -37.18288 175.28116 8004 ft 134 kts 123°
2026-05-04 09:52 -37.18865 175.29037 8004 ft 134 kts 123°
2026-05-04 09:52 -37.19441 175.29958 8004 ft 134 kts 123°
2026-05-04 09:52 -37.20014 175.30882 8004 ft 134 kts 123°
2026-05-04 09:53 -37.20586 175.31807 8007 ft 134 kts 123°
2026-05-04 09:53 -37.21158 175.32732 8006 ft 134 kts 123°
2026-05-04 09:53 -37.21729 175.33657 8006 ft 134 kts 123°
2026-05-04 09:53 -37.22300 175.34580 8006 ft 134 kts 123°
2026-05-04 09:54 -37.22870 175.35502 8006 ft 134 kts 123°
2026-05-04 09:54 -37.23440 175.36425 8006 ft 134 kts 123°
2026-05-04 09:54 -37.24012 175.37350 8006 ft 133 kts 123°
2026-05-04 09:54 -37.24580 175.38271 8008 ft 133 kts 123°
2026-05-04 09:55 -37.25149 175.39192 8005 ft 133 kts 123°
2026-05-04 09:55 -37.25717 175.40111 8005 ft 133 kts 123°
2026-05-04 09:55 -37.26280 175.41025 8005 ft 133 kts 123°
2026-05-04 09:55 -37.26848 175.41944 8006 ft 133 kts 123°
2026-05-04 09:56 -37.27415 175.42865 8003 ft 133 kts 123°
2026-05-04 09:56 -37.27982 175.43784 8009 ft 133 kts 123°
2026-05-04 09:56 -37.28552 175.44708 8009 ft 134 kts 123°
2026-05-04 09:56 -37.29122 175.45634 8009 ft 134 kts 123°
2026-05-04 09:57 -37.29691 175.46558 8010 ft 134 kts 123°
2026-05-04 09:57 -37.30264 175.47487 8010 ft 134 kts 123°
2026-05-04 09:57 -37.30835 175.48415 8011 ft 134 kts 123°
2026-05-04 09:57 -37.31406 175.49342 8011 ft 134 kts 123°
2026-05-04 09:58 -37.31977 175.50270 8010 ft 134 kts 123°
2026-05-04 09:58 -37.32547 175.51197 8009 ft 134 kts 123°
2026-05-04 09:58 -37.33112 175.52134 8008 ft 133 kts 118°
2026-05-04 10:00 -37.35484 175.59578 8011 ft 131 kts 107°
2026-05-04 10:00 -37.35819 175.60648 7988 ft 133 kts 107°
2026-05-04 10:02 -37.37826 175.68721 6044 ft 144 kts 88°
2026-05-04 10:04 -37.37942 175.77200 3626 ft 126 kts 88°
2026-05-04 10:04 -37.37956 175.78285 3414 ft 122 kts 88°
2026-05-04 10:04 -37.37970 175.79328 3202 ft 117 kts 88°
2026-05-04 10:04 -37.37983 175.80335 3000 ft 114 kts 87°
2026-05-04 10:05 -37.37995 175.81353 2798 ft 121 kts 89°
2026-05-04 10:05 -37.38009 175.82440 2596 ft 126 kts 89°
2026-05-04 10:05 -37.38024 175.83552 2449 ft 125 kts 89°
2026-05-04 10:05 -37.38036 175.84669 2462 ft 132 kts 89°
2026-05-04 10:06 -37.38050 175.85850 2458 ft 139 kts 89°
2026-05-04 10:06 -37.38067 175.87080 2456 ft 142 kts 89°
2026-05-04 10:06 -37.38083 175.88322 2453 ft 142 kts 90°
2026-05-04 10:08 -37.39370 175.95508 2444 ft 148 kts 120°
2026-05-04 10:08 -37.39934 175.96585 2446 ft 147 kts 120°
2026-05-04 10:08 -37.40497 175.97658 2442 ft 147 kts 121°
2026-05-04 10:08 -37.41064 175.98739 2442 ft 147 kts 120°
2026-05-04 10:09 -37.41620 175.99802 2447 ft 148 kts 121°
2026-05-04 10:09 -37.42191 176.00894 2447 ft 149 kts 120°
2026-05-04 10:09 -37.42760 176.01982 2445 ft 149 kts 120°
2026-05-04 10:09 -37.43327 176.03068 2447 ft 149 kts 121°
2026-05-04 10:10 -37.43898 176.04162 2386 ft 153 kts 120°
2026-05-04 10:10 -37.44492 176.05302 2229 ft 158 kts 121°
2026-05-04 10:10 -37.45100 176.06465 2075 ft 160 kts 121°
2026-05-04 10:10 -37.45504 176.07240 1972 ft 160 kts 121°
2026-05-04 10:11 -37.46106 176.08392 1952 ft 154 kts 122°
2026-05-04 10:11 -37.46685 176.09504 1952 ft 150 kts 121°
2026-05-04 10:11 -37.47256 176.10599 1952 ft 149 kts 121°
2026-05-04 10:11 -37.47820 176.11682 1952 ft 148 kts 121°
2026-05-04 10:12 -37.48383 176.12763 1949 ft 148 kts 121°
2026-05-04 10:12 -37.48946 176.13846 1949 ft 148 kts 121°
2026-05-04 10:12 -37.49506 176.14919 1945 ft 143 kts 121°
2026-05-04 10:12 -37.50035 176.15933 1944 ft 135 kts 121°
2026-05-04 10:13 -37.50541 176.16906 1939 ft 131 kts 121°
2026-05-04 10:13 -37.51039 176.17868 1953 ft 134 kts 121°
2026-05-04 10:13 -37.51558 176.18871 1956 ft 137 kts 121°
2026-05-04 10:13 -37.52083 176.19880 1955 ft 138 kts 121°
2026-05-04 10:14 -37.52610 176.20894 1951 ft 139 kts 121°
2026-05-04 10:14 -37.53140 176.21913 1952 ft 139 kts 120°
2026-05-04 10:16 -37.56813 176.28995 1956 ft 139 kts 121°
2026-05-04 10:16 -37.57345 176.30020 1954 ft 140 kts 121°
2026-05-04 10:16 -37.57877 176.31049 1957 ft 140 kts 121°
2026-05-04 10:16 -37.58403 176.32064 1956 ft 140 kts 121°
2026-05-04 10:17 -37.58934 176.33090 1956 ft 140 kts 121°
2026-05-04 10:17 -37.59466 176.34118 1953 ft 140 kts 120°
2026-05-04 10:19 -37.64834 176.37927 1951 ft 145 kts 181°
2026-05-04 10:19 -37.65837 176.37846 1951 ft 144 kts 181°
2026-05-04 10:19 -37.66832 176.37661 1953 ft 146 kts 199°
2026-05-04 10:19 -37.67620 176.36981 1957 ft 133 kts 229°
2026-05-04 10:20 -37.68039 176.35984 1955 ft 126 kts 257°
2026-05-04 10:20 -37.68082 176.34916 1960 ft 121 kts 275°
2026-05-04 10:20 -37.68034 176.33866 1957 ft 119 kts 275°
2026-05-04 10:20 -37.67982 176.32827 1901 ft 115 kts 275°
2026-05-04 10:21 -37.67934 176.31859 1759 ft 107 kts 275°
2026-05-04 10:21 -37.67888 176.30929 1615 ft 105 kts 275°
2026-05-04 10:21 -37.67842 176.30015 1475 ft 104 kts 274°
2026-05-04 10:21 -37.67795 176.29101 1337 ft 104 kts 273°
2026-05-04 10:22 -37.67704 176.27295 1052 ft 102 kts 272°
2026-05-04 10:22 -37.67658 176.26406 921 ft 101 kts 271°
2026-05-04 10:22 -37.67614 176.25523 784 ft 100 kts 270°
2026-05-04 10:23 -37.67572 176.24721 657 ft 88 kts 271°
2026-05-04 10:23 -37.67536 176.23977 523 ft 84 kts 270°
2026-05-04 10:25 -37.67332 176.19889 20 ft 46 kts 274°
2026-05-04 10:25 -37.67290 176.19756 22 ft 13 kts 357°
2026-05-04 10:25 -37.67272 176.19757 23 ft 0 kts
2026-05-04 10:25 -37.67227 176.19762 23 ft 17 kts
2026-05-04 10:26 -37.67171 176.19863 21 ft 10 kts 72°
2026-05-04 10:26 -37.67158 176.19899 20 ft 0 kts 251°